[[{"header":{"parameterUnit":"m.s-1","parameterCategory":1,"la1":30.2992,"la2":30.254,"lo1":-89.0895,"lo2":-89.0443,"dy":0.0025,"dx":0.0025,"nx":19,"ny":19,"refTime":"2026-05-04T09:00:00:Z","depth":0,"parameterNumber":2,"parameterNumberName":"U-component_of_WINDS"},"data":[0,0,0,0.0731,0.073,0.0667,0.0666,0.0591,0.059,0,0,0,0,0,0,0,0,0,0,0,0.0755,0.0755,0.0731,0.073,0.0667,0.0666,0.0591,0.059,0,0,0,0,0,0,0,0,0,0,0,0.0755,0.0755,0.0755,0.073,0.0667,0.0666,0.0591,0.0636,0,0,0,0,0,0,0,0,0,0,0.0697,0.0725,0.0755,0.0755,0.0729,0.0667,0.0666,0.0639,0.0634,0.0623,0,0.0616,0,0.0602,0.0586,0.0586,0,0,0,0.0725,0.0729,0.0707,0.0755,0.0729,0.0667,0.0694,0.0636,0.063,0.0616,0.0615,0.0612,0.0601,0.0585,0.0585,0.0539,0.0539,0,0,0.0729,0.0746,0.0711,0.0704,0.0716,0.0696,0.0692,0.0632,0.0631,0.0615,0.061,0.06,0.0585,0.0584,0.0539,0.0539,0,0,0,0.0742,0.0749,0.0728,0.0707,0.0696,0.0694,0.069,0.0634,0.0626,0.0609,0.0599,0.0585,0.0584,0.0539,0.0539,0.0556,0,0,0,0.0744,0.0757,0.073,0.074,0.0697,0.0664,0.0693,0.063,0.0623,0.0599,0.0585,0.0583,0.0539,0.0539,0.0556,0.0561,0,0,0,0.0757,0.0758,0.0751,0.0742,0.0715,0.0665,0.0653,0.0628,0.0617,0.0586,0.0583,0.0539,0.0539,0.0555,0.056,0.0553,0,0,0,0.0777,0.0767,0.0752,0.0736,0.0716,0.0677,0.0653,0.0623,0.0599,0.0584,0.0539,0.0539,0.0555,0.056,0.0553,0.0551,0.0552,0,0,0.0774,0.0768,0.0757,0.0741,0.071,0.0685,0.0654,0.0615,0.0595,0.0559,0.0557,0.0556,0.056,0.0553,0.0551,0.0552,0,0,0,0.0762,0.0755,0.0743,0.0721,0.0691,0.0664,0.0628,0.0612,0.0581,0.0581,0.0551,0.0553,0.0549,0.0546,0.0547,0.0541,0.0539,0.0539,0.0539,0.0784,0.076,0.074,0.0708,0.0686,0.0648,0.0627,0.06,0.0582,0.0575,0.0564,0.0566,0.0564,0.0564,0.0559,0.0561,0.0561,0.0561,0.0561,0.0777,0.0762,0.0738,0.071,0.0683,0.0659,0.062,0.0608,0.058,0.0573,0.0567,0.056,0.0566,0.0559,0.0562,0.0562,0.0562,0.0562,0.0562,0.0788,0.0777,0.0759,0.0723,0.0698,0.0665,0.0639,0.0616,0.0593,0.0588,0.0573,0.0572,0.0568,0.0582,0.0582,0.0582,0.0582,0.0582,0.0582,0.0807,0.0786,0.0768,0.0734,0.0716,0.0689,0.0649,0.0629,0.0602,0.0586,0.0586,0.0567,0.0572,0.0573,0.0582,0.0582,0.0582,0.0582,0.0582,0.0808,0.0804,0.0776,0.0758,0.0715,0.069,0.0661,0.0623,0.0603,0.0591,0.0573,0.058,0.0571,0.057,0.0571,0.0579,0.0579,0.0579,0.0579,0.0817,0.081,0.0775,0.0747,0.0717,0.0687,0.0654,0.0622,0.0587,0.0573,0.0568,0.0568,0.0568,0.0558,0.0558,0.0558,0.0563,0.0563,0.0563,0.0815,0.0804,0.0782,0.075,0.0714,0.0683,0.0651,0.0617,0.0578,0.0562,0.0561,0.0562,0.056,0.0561,0.0545,0.0545,0.0545,0,0]},{"header":{"parameterUnit":"m.s-1","parameterCategory":1,"la1":30.2992,"la2":30.254,"lo1":-89.0895,"lo2":-89.0443,"dy":0.0025,"dx":0.0025,"nx":19,"ny":19,"refTime":"2026-05-04T09:00:00:Z","depth":0,"parameterNumber":3,"parameterNumberName":"V-component_of_WINDS"},"data":[0,0,0,5.076,5.0763,5.0871,5.0871,5.1018,5.102,0,0,0,0,0,0,0,0,0,0,0,5.0737,5.0738,5.076,5.0763,5.0871,5.0871,5.1018,5.102,0,0,0,0,0,0,0,0,0,0,0,5.0736,5.0738,5.074,5.0763,5.0871,5.0871,5.1017,5.0932,0,0,0,0,0,0,0,0,0,0,5.0825,5.0814,5.0738,5.074,5.0764,5.0871,5.0871,5.0928,5.0937,5.0974,0,5.1012,0,5.1018,5.103,5.1031,0,0,0,5.0756,5.0806,5.0827,5.074,5.0765,5.087,5.082,5.0933,5.0944,5.0987,5.1014,5.1019,5.1021,5.1031,5.1032,5.127,5.1272,0,0,5.075,5.0761,5.082,5.0835,5.0822,5.0817,5.0823,5.0939,5.0969,5.1014,5.1022,5.1023,5.1032,5.1034,5.1269,5.1271,0,0,0,5.0737,5.0757,5.0775,5.0829,5.0848,5.082,5.0828,5.0963,5.0968,5.1024,5.1025,5.1033,5.1035,5.1267,5.127,5.135,0,0,0,5.0733,5.075,5.0773,5.0781,5.0846,5.0908,5.0849,5.096,5.0973,5.1024,5.1033,5.1037,5.1266,5.1269,5.1345,5.1386,0,0,0,5.0727,5.0749,5.0768,5.0781,5.0828,5.0906,5.0917,5.0963,5.0974,5.1031,5.1037,5.1265,5.1268,5.134,5.1378,5.1449,0,0,0,5.0723,5.084,5.0769,5.09,5.0827,5.0956,5.0916,5.1011,5.107,5.1034,5.1266,5.1269,5.1338,5.1373,5.1444,5.1509,5.1538,0,0,5.0877,5.0859,5.0935,5.0875,5.1019,5.0939,5.1093,5.1136,5.1131,5.1223,5.1229,5.1346,5.1377,5.1448,5.1703,5.1726,0,0,0,5.0987,5.1041,5.1077,5.1133,5.1169,5.1201,5.1219,5.1234,5.1311,5.1182,5.1393,5.141,5.1451,5.1482,5.1502,5.1534,5.1285,5.1285,5.1284,5.122,5.1206,5.1329,5.1328,5.1382,5.1398,5.1439,5.1461,5.1434,5.1483,5.151,5.1666,5.1703,5.1718,5.1752,5.1546,5.1546,5.1546,5.1546,5.1441,5.1514,5.1471,5.1574,5.1558,5.1644,5.1661,5.1637,5.1712,5.1646,5.1682,5.1608,5.1744,5.1772,5.1552,5.1551,5.1551,5.155,5.155,5.159,5.1622,5.1639,5.1715,5.1775,5.1768,5.1841,5.1824,5.1809,5.1844,5.1867,5.1866,5.1859,5.1857,5.1857,5.1858,5.1858,5.1859,5.1859,5.1737,5.1753,5.1817,5.1862,5.1893,5.1932,5.1945,5.1975,5.2002,5.1984,5.1984,5.1947,5.1761,5.1712,5.1867,5.1866,5.1865,5.1864,5.1863,5.1962,5.1908,5.2008,5.2039,5.2086,5.2144,5.2121,5.2181,5.2203,5.2238,5.2194,5.206,5.204,5.2024,5.1983,5.2199,5.2199,5.2199,5.2199,5.2086,5.2074,5.2169,5.2219,5.2265,5.2253,5.2361,5.2371,5.2373,5.2384,5.2351,5.2297,5.2281,5.227,5.2249,5.2211,5.2479,5.248,5.248,5.2221,5.2212,5.2309,5.231,5.2345,5.2374,5.2474,5.2529,5.252,5.2491,5.2392,5.238,5.2292,5.2265,5.2232,5.2199,5.2129,0,0]}]]